Location: Ebersheim
(48.3033°N, 7.4991°E)
Time: 15:22:21
(UTC+00:00)

Cosmos 44 Rocket - Pass Details

Date: 27 February 2020
Orbit: 659 x 731 km, 65.1° (Epoch: 27 March)

Event Time Altitude Azimuth Distance (km) Brightness Sun altitude
Rises 18:57:46 0° 318° (NW) 3,007 7.4 -18.6°
Reaches altitude 10° 19:00:09 10° 312° (NW) 2,096 6.6 -19.0°
Maximum altitude 19:04:40 45° 240° (WSW) 916 4.2 -19.8°
Enters shadow 19:08:50 12° 170° (S) 1,967 5.4 -20.5°
